Regional Weather Roundup
Issued by NWS Wakefield, VA

Home | Current Version | Previous Version | Graphics & Text | Print | Product List | Glossary On
Versions: 1 2 3 4 5 6 7 8 9 10 11 12 13 14 15 16 17 18 19 20 21 22 23 24 25 26 27 28 29 30 31 32 33 34 35 36 37 38 39 40 41 42 43 44 45 46 47 48 49 50
000
ASUS41 KAKQ 052215
RWRAKQ

REGIONAL WEATHER ROUNDUP
NATIONAL WEATHER SERVICE WAKEFIELD VA
600 PM EDT SUN JUL 05 2015

Note: "fair" indicates few or no clouds below 12,000 feet with no
significant weather and/or obstructions to visibility. * = Denotes
station may not report precipitation (e.g., rain,snow,etc.),
thunder or fog.

VAZ042-051-052>054-056-052300-
NORTHERN VIRGINIA

CITY           SKY/WX    TMP DP  RH WIND       PRES   REMARKS
WASH NATIONAL  CLOUDY    83  71  67 SE6       30.10S
DULLES         CLOUDY    80  69  69 S5        30.10F
FORT BELVOIR   CLOUDY    82  72  71 S6        30.09F
QUANTICO       CLOUDY    82  70  66 E3        30.10F
FREDERICKSBRG* CLOUDY    83  73  73 E6        30.08F
STAFFORD*      CLOUDY    79  71  74 E5        30.13F
WARRENTON      CLOUDY    81  73  76 E5        30.10S
CULPEPER*      CLOUDY    79  71  77 CALM      30.10F
MANASSAS*      SUNNY     81  72  74 CALM      30.10S
LEESBURG*      CLOUDY    81  73  78 SW10      30.11S
WINCHESTER     PTSUNNY   81  70  69 S7        30.11S
FRONT ROYAL*   FAIR      77  70  78 SE3       30.10S
LURAY*         FAIR      82  68  61 SE3       30.10F
$$

VAZ048-049-060>072-079>083-052300-
CENTRAL AND SOUTH CENTRAL VIRGINIA

CITY           SKY/WX    TMP DP  RH WIND       PRES   REMARKS
RICHMOND       CLOUDY    82  72  71 E7        30.08F
CHESTERFIELD*  NOT AVBL
PETERSBURG*    CLOUDY    79  79 100 NE3       30.07F
HANOVER        PTSUNNY   81  72  74 E3        30.10S
TAPPAHANNOCK*  PTSUNNY   82  68  62 E8        30.10S
QUINTON*       NOT AVBL
CHARLOTTSVILLE PTSUNNY   79  69  71 E6        30.10F
GORDONSVILLE*  FAIR      79  70  73 CALM      30.09F
ORANGE*        CLOUDY    81  70  69 CALM      30.11F
LOUISA*        CLOUDY    81  72  74 E3        30.09S
BUMPASS*       FAIR      81  72  74 E3        30.09F
FARMVILLE*     CLOUDY    82  73  74 NE5       30.08F
CREWE*         FAIR      75  73  93 N5        30.07F
FORT PICKETT*  FAIR      74  70  88 E5        30.08F
CHASE CITY*    FAIR      78  74  87 CALM      30.07F
CLARKSVILLE*   FAIR      73  72  94 CALM      30.06F
SOUTH HILL*    CLOUDY    72  70  95 CALM      30.12F
LAWRENCEVILLE* NOT AVBL
EMPORIA*       TSTM      73  70  88 E6        30.10R
$$

VAZ088>098-052300-
SOUTHEAST VIRGINIA

CITY           SKY/WX    TMP DP  RH WIND       PRES   REMARKS
NORFOLK        CLOUDY    81  71  71 SE8       30.08F
VIRGINIA BEACH CLOUDY    80  72  76 E8        30.08F
NORFOLK NAVAL  CLOUDY    79  72  79 E8        30.10S
WEST POINT*    PTSUNNY   82  71  68 E7        30.10F
SALUDA*        FAIR      79  72  79 SE8       30.09F
NEWPORT NEWS   PTSUNNY   79  72  79 SE10      30.10S
LANGLEY AFB    PTSUNNY   78  72  81 E10       30.08S
FORT EUSTIS    PTSUNNY   81  76  86 SE7       30.08S
WILLIAMSBURG*  PTSUNNY   82  73  74 E5        30.10S
HR EXEC AP*    FAIR      79  73  83 E7        30.11F
FRANKLIN*      TSTM      74  73  96 NW6       30.11R
WAKEFIELD      PTSUNNY   80  73  79 VRB5      30.09S
$$

VAZ020-022-025-037-045-052300-
WEST CENTRAL AND SOUTHWEST VIRGINIA

CITY           SKY/WX    TMP DP  RH WIND       PRES   REMARKS
STAUNTON*      PTSUNNY   81  68  65 E3        30.14S
WAYNESBORO*    MOCLDY    76  69  78 SE7       30.14R
HOT SPRINGS VA CLOUDY    68  68 100 SE7       30.21S
LYNCHBURG      CLOUDY    75  72  90 NE7       30.11S
DANVILLE       PTSUNNY   78  71  79 E6        30.05F
SOUTH BOSTON*  CLOUDY    75  71  87 MISG      30.07F
MARTINSVILLE   PTSUNNY   76  76 100 N3        30.09F
ROANOKE        LGT RAIN  76  70  82 SE14      30.11R
BLACKSBURG     HVY RAIN  70  69  98 S6        30.16R VSB 1/2
DUBLIN*        DRIZZLE   73  71  94 SE3       30.13S
MARION*        PTSUNNY   75  65  71 E7        30.11F
HILLSVILLE*    PTSUNNY   70  67  92 SE3       30.12F
RICHLANDS*     CLOUDY    71  67  88 SW3       30.10S
WISE*          PTSUNNY   77  61  57 W6        30.11F
ABINGDON*      LGT RAIN  74  70  87 W15G22    30.09R
$$

MDZ021>025-VAZ099-100-052300-
SOUTHERN MARYLAND AND THE DELMARVA PENINSULA

CITY           SKY/WX    TMP DP  RH WIND       PRES   REMARKS
PATUXENT RIVER PTSUNNY   80  69  69 SE8       30.10F
BAY BRIDGE APT   N/A     79  68  69 W5        30.10F
LEONARDTOWN    MOSUNNY   79  68  69 E6        30.11F
DOVER          MOSUNNY   77  67  71 E9        30.10F
GEORGETOWN     MOSUNNY   80  70  71 SE10      30.12S
EASTON         PTSUNNY   82  73  74 CALM      30.14
CAMBRIDGE      PTSUNNY   82  66  57 CALM      30.10S
SALISBURY      MOSUNNY   81  72  74 SE7       30.11S
OCEAN CITY     MOSUNNY   76  69  79 SE7       30.12F
WALLOPS ISLAND MOSUNNY   78  72  81 SE9       30.11F
ACCOMACK*      PTSUNNY   77  72  83 SE5       30.10F
$$

NCZ012>017-030>032-052300-
NORTH CENTRAL AND EASTERN NORTH CAROLINA

CITY           SKY/WX    TMP DP  RH WIND       PRES   REMARKS
ROANOKE RAPIDS DRIZZLE   73  70  88 CALM      30.06F
RALEIGH        PTSUNNY   83  68  60 S15G22    30.06F
ELIZABETH CITY PTSUNNY   83  76  79 NE9       30.07F
AHOSKIE*       PTSUNNY  N/A N/A N/A NW6       30.08R
EDENTON*         N/A     87  74  64 S9        30.07S HX  95
CURRITUCK*     PTSUNNY   81  75  83 E7        30.09F
KILL DEVIL HLS PTSUNNY   88  73  61 S8        30.07S HX  96
MANTEO         PTSUNNY   84  73  69 S15       30.09R
CAPE HATTERAS  SUNNY     81  75  82 SW7       30.10F
TARBORO*         N/A     91  71  52 S5        30.06S HX  96
GOLDSBORO      MOSUNNY   90  72  55 S9        30.03F HX  96
WASHINGTON     MOSUNNY   88  69  53 S8        30.07S
GREENVILLE     MOSUNNY   90  70  51 SW8       30.07F HX  95
NEW BERN       SUNNY     87  70  56 S8G18     30.09S
WILMINGTON     MOSUNNY   87  73  62 S12       30.08S
$$

VAZ048-052300-
ELSEWHERE

CITY           SKY/WX    TMP DP  RH WIND       PRES   REMARKS
HARRISBURG PA  PTSUNNY   78  64  61 CALM      30.11S
BALTIMORE      CLOUDY    80  68  66 SE6       30.09F
ANNAPOLIS      PTSUNNY   79  67  66 SE7       30.10F
ANDREWS AFB    PTSUNNY   79  75  86 E8        30.09F
PHILADELPHIA   MOSUNNY   84  63  49 S8        30.11S
HENDERSON NC   PTSUNNY   81  69  67 E8        30.07S
GREENSBORO     TSTM      75  72  88 CALM      30.07R
ROCKY MOUNT    MOSUNNY   87  71  58 S8        30.05F
$$

VAZ100-052300-
MARINE

STATION/POSITION TIME  TEMP    WIND        PRES    WAVE   SWELL
                       AIR SEA DIR/SP/G            HT/PER HT/PER
                 (UTC) (F)     (DEG/KT/KT) (MB)    (FT/S) (FT/S)
BRANDYWINE LGT   2100   74 75  140/ 12/ 12 1020.5S
CAPE MAY NJ      2100   76 79  110/  9/ 10 1020.0F
LEWES DE         2100   75 75  120/ 12/ 15 1020.1S
15NM E FENWICK I 2150   75 76              1019.9F   3/ 7
OCEAN-CITY-INLET 2100   76 76  130/  5/  8 1020.1F
WACHAPREAGUE VA  2100   77 86  120/  5/  7 1019.8F
THOMAS POINT MD  2100   78     180/  1       N/A
GOOSES REEF MD   2100   79 81  160/  4/  6 1020.5F
COVE POINT MD    2100   77     190/  8/  9 1020.3F
SOLOMONS ISLAND  2100      82                N/A
BISHOPS HEAD MD  2100   79     270/  4/  5 1019.5F
PINEY POINT MD   2100          120/  8/  9   N/A
CAMBRIDGE MD     2100   80 80  340/  7/  8 1019.2F
LEWISETTA VA     2100   78 80  110/  8/  9 1019.1F
RAPPAHANNOCK LGT 2100          110/  7/  8 1020.0F
STINGRAY PT      2100   80 82  140/  6/  8 1019.5F   0
YORK RVR RNG VA  2100   78     140/ 12/ 15 1018.7F
YORKTOWN VA      2100   79 80  120/  9/ 15 1019.1F
JAMESTOWN VA     2100   81 84  110/ 12/ 16   N/A
DOMINION TERM VA 2100   78      80/ 12/ 15 1018.9F
KIPTOPEKE VA     2100      82  110/  9/ 11   N/A
CHES BAY BRIDGE  2100   77 77   70/ 12/ 14 1018.8F
CAPE HENRY VA    2100   77     100/ 10/ 11   N/A
CHESAPEAKE LGHT  2100   76     110/ 10/ 11 1020.1F
WILLOUBY STN VA  2100   77      70/ 11/ 12 1020.0F
CAPE HENRY BUOY  2128      78                N/A     2/ 7
1ST LANDING BUOY 2100      78              1018.9F   1/ 3
CAPE CHARLES BUO 2126      77                N/A     2/ 8   2/ 8
OFFSHORE WE BUOY 2111      78                N/A     3/ 8   3/ 8
64NM E OF VA BCH 2150   78 78  110/  6/  8 1019.2F   4/ 6   3/ 6
DUCK PIER NC     2100   82 80  100/ 12/ 13   N/A
44100 DUCK FRF   2124      80                N/A     2/14
44056 DUCK FRF   2111      79                N/A     2/ 9
OREGON INLET NC  2100   82 80  190/ 14/ 18 1019.0F
HATTERAS NC      2100   81 80  200/  8/ 11 1019.3F
DIAMOND SHLS NC  2150   81 81  220/ 12/ 14 1019.3F   3/ 5   2/ 9
CAPE LOOKOUT NC  2200   82     220/  7/ 10 1019.2S
$$


USA.gov is the U.S. government's official web portal to all federal, state and local government web resources and services.